Weather History for Marion, OH

Change the Weather History Date:

Thursday, January 9, 2014

  Actual Average (KDLZ) Record (KDLZ)
Temperature  
Mean Temperature 16 °F -  
Max Temperature 30 °F 29 °F 62 °F (1937)
Min Temperature 3 °F 11 °F -13 °F (1968)
Degree Days  
Heating Degree Days 48    
Moisture  
Dew Point 21 °F    
Average Humidity 88    
Maximum Humidity 100    
Minimum Humidity 75    
Precipitation  
Precipitation 0.06 in - - ()
Sea Level Pressure  
Sea Level Pressure 30.42 in    
Wind  
Wind Speed 6 mph (SSE)    
Max Wind Speed 13 mph    
Max Gust Speed -    
Visibility 3 miles    
Events Fog , Snow    
Averages and records for this station are not official NWS values.
T = Trace of Precipitation, MM = Missing Value Source: NWS Daily Summary

Daily Weather History Graph

Daily Weather History Graph

Search for Another Location

Airport:

Trip Planner

Search our weather history database for the weather conditions in past years. The results will help you decide how hot, cold, wet, or windy it might be!

Date:

Astronomy

Jan. 09, 2014 Rise Set
Actual Time 7:55 AM EST 5:23 PM EST
Civil Twilight 7:25 AM EST 5:53 PM EST
Nautical Twilight 6:51 AM EST 6:27 PM EST
Astronomical Twilight 6:18 AM EST 7:00 PM EST
Moon 12:50 PM EST (1/9) 2:01 AM EST (1/9)
Length of Visible Light 10h 28m
Length of Day
9h 27m
Waxing Gibbous, 66% of the Moon is Illuminated
Jan 9
Waxing Gibbous
Jan 15
Full
Jan 24
Last Quarter
Jan 30
New
Feb 6
First Quarter

Hourly Weather History & Observations

Time (EST) Temp. Windchill Dew Point Humidity Pressure Visibility Wind Dir Wind Speed Gust Speed Precip Events Conditions
12:53 AM 17.1 °F 8.7 °F 12.0 °F 81% 30.53 in 9.0 mi North 5.8 mph - N/A   Overcast
1:53 AM 16.0 °F 8.8 °F 10.9 °F 81% 30.54 in 8.0 mi NNE 4.6 mph - N/A   Overcast
2:53 AM 15.1 °F 7.7 °F 10.0 °F 80% 30.55 in 9.0 mi North 4.6 mph - N/A   Overcast
3:53 AM 12.0 °F 4.1 °F 8.1 °F 84% 30.56 in 7.0 mi NNE 4.6 mph - N/A   Scattered Clouds
4:53 AM 6.1 °F - 1.9 °F 83% 30.57 in 4.0 mi Calm Calm - N/A   Clear
5:53 AM 3.9 °F -8.2 °F 1.0 °F 88% 30.57 in 3.0 mi NE 6.9 mph - N/A   Clear
6:53 AM 7.0 °F - 3.0 °F 84% 30.58 in 4.0 mi Calm Calm - N/A   Clear
7:53 AM 6.1 °F - 3.0 °F 87% 30.59 in 3.0 mi Calm Calm - N/A   Clear
8:01 AM 6.8 °F -0.1 °F 3.2 °F 85% 30.52 in 2.5 mi East 3.5 mph - N/A   Clear
8:10 AM 6.8 °F -2.0 °F 3.2 °F 85% 30.52 in 3.0 mi East 4.6 mph - N/A   Clear
8:53 AM 9.0 °F 0.6 °F 6.1 °F 88% 30.58 in 5.0 mi ESE 4.6 mph - N/A   Partly Cloudy
9:53 AM 14.0 °F 5.1 °F 10.0 °F 84% 30.57 in 4.0 mi ESE 5.8 mph - N/A   Clear
10:53 AM 19.9 °F 12.1 °F 15.1 °F 81% 30.56 in 5.0 mi SE 5.8 mph - N/A   Haze
11:53 AM 23.0 °F 15.8 °F 17.1 °F 78% 30.53 in 6.0 mi SSE 5.8 mph - N/A   Haze
12:53 PM 27.0 °F 16.1 °F 19.9 °F 75% 30.47 in 7.0 mi SSE 12.7 mph - N/A   Clear
1:53 PM 28.0 °F 18.6 °F 21.0 °F 75% 30.45 in 6.0 mi SSE 10.4 mph - N/A   Haze
2:53 PM 28.9 °F 21.1 °F 21.9 °F 75% 30.45 in 7.0 mi South 8.1 mph - N/A   Overcast
3:53 PM 30.0 °F 23.2 °F 23.0 °F 75% 30.45 in 7.0 mi SSE 6.9 mph - 0.00 in   Overcast
4:22 PM 30.2 °F 22.6 °F 23.0 °F 75% 30.39 in 1.8 mi SE 8.1 mph - 0.00 in Snow Light Snow
4:29 PM 28.4 °F 20.4 °F 24.8 °F 86% 30.38 in 1.2 mi SE 8.1 mph - 0.00 in Snow Light Snow
4:34 PM 28.4 °F 20.4 °F 24.8 °F 86% 30.38 in 0.8 mi SE 8.1 mph - 0.00 in Snow Light Snow
4:50 PM 28.4 °F 21.2 °F 24.8 °F 86% 30.37 in 1.2 mi ESE 6.9 mph - 0.00 in Snow Light Snow
4:53 PM 28.9 °F 21.9 °F 25.0 °F 85% 30.43 in 1.5 mi ESE 6.9 mph - 0.00 in Snow Light Snow
5:01 PM 28.4 °F 21.2 °F 24.8 °F 86% 30.37 in 3.0 mi SE 6.9 mph - 0.00 in Snow Light Snow
6:18 PM 28.4 °F 24.6 °F 26.6 °F 93% 30.37 in 1.8 mi SSE 3.5 mph - 0.00 in Snow Light Snow
6:21 PM 28.4 °F 24.6 °F 26.6 °F 93% 30.37 in 3.0 mi SSE 3.5 mph - 0.00 in Snow Light Snow
6:53 PM 28.9 °F 22.8 °F 26.1 °F 89% 30.41 in 6.0 mi ESE 5.8 mph - 0.00 in   Overcast
7:53 PM 28.9 °F 21.9 °F 26.1 °F 89% 30.41 in 7.0 mi SSE 6.9 mph - N/A   Overcast
8:25 PM 30.2 °F 20.8 °F 26.6 °F 86% 30.36 in 2.5 mi South 11.5 mph - 0.00 in Snow Light Snow
8:29 PM 30.2 °F 20.8 °F 26.6 °F 86% 30.36 in 1.0 mi South 11.5 mph - 0.01 in Snow Light Snow
8:36 PM 30.2 °F 21.3 °F 26.6 °F 86% 30.35 in 0.8 mi South 10.4 mph - 0.01 in Snow Light Snow
8:51 PM 30.2 °F 21.3 °F 28.4 °F 93% 30.35 in 0.5 mi South 10.4 mph - 0.02 in Fog , Snow Snow
8:53 PM 30.0 °F 21.1 °F 28.0 °F 92% 30.40 in 0.8 mi South 10.4 mph - 0.02 in Snow Light Snow
9:18 PM 28.4 °F 20.4 °F 28.4 °F 100% 30.35 in 1.0 mi South 8.1 mph - 0.02 in Snow Light Snow
9:32 PM 28.4 °F 21.2 °F 28.4 °F 100% 30.34 in 1.2 mi South 6.9 mph - 0.02 in Snow Light Snow
9:43 PM 28.4 °F 20.4 °F 28.4 °F 100% 30.34 in 1.8 mi South 8.1 mph - 0.03 in Snow Light Snow
9:53 PM 28.9 °F 21.9 °F 28.0 °F 96% 30.39 in 1.5 mi South 6.9 mph - 0.03 in Snow Light Snow
10:05 PM 28.4 °F 20.4 °F 28.4 °F 100% 30.33 in 2.0 mi South 8.1 mph - 0.00 in Snow Light Snow
10:18 PM 28.4 °F 20.4 °F 28.4 °F 100% 30.33 in 2.0 mi South 8.1 mph - 0.00 in Snow Light Snow
10:28 PM 30.2 °F 21.9 °F 28.4 °F 93% 30.32 in 1.0 mi South 9.2 mph - 0.00 in Snow Light Snow
10:39 PM 28.4 °F 20.4 °F 28.4 °F 100% 30.32 in 1.8 mi South 8.1 mph - 0.00 in Snow Light Snow
10:48 PM 30.2 °F 22.6 °F 28.4 °F 93% 30.31 in 2.0 mi South 8.1 mph - 0.00 in Snow Light Snow
10:53 PM 30.0 °F 21.7 °F 28.0 °F 92% 30.36 in 1.8 mi South 9.2 mph - 0.00 in Snow Light Snow
11:02 PM 30.2 °F 21.9 °F 28.4 °F 93% 30.31 in 1.8 mi South 9.2 mph - 0.00 in Snow Light Snow
11:07 PM 30.2 °F 21.9 °F 28.4 °F 93% 30.31 in 1.0 mi South 9.2 mph - 0.01 in Snow Light Snow
11:14 PM 30.2 °F 22.6 °F 28.4 °F 93% 30.30 in 0.8 mi South 8.1 mph - 0.01 in Snow Light Snow
11:19 PM 28.4 °F 20.4 °F 28.4 °F 100% 30.30 in 1.2 mi South 8.1 mph - 0.01 in Snow Light Snow
11:27 PM 28.4 °F 19.7 °F 28.4 °F 100% 30.29 in 3.0 mi South 9.2 mph - 0.01 in Snow Light Snow
11:38 PM 28.4 °F 20.4 °F 28.4 °F 100% 30.29 in 3.0 mi South 8.1 mph - 0.01 in Snow Light Snow
11:53 PM 30.0 °F 21.7 °F 28.0 °F 92% 30.32 in 3.0 mi South 9.2 mph - 0.01 in Snow Light Snow